Regional Weather Roundup
Issued by NWS

Home | Current Version | Previous Version | Graphics & Text | Print | Product List | Glossary On
Versions: 1 2 3 4 5 6 7 8 9 10 11 12 13 14 15 16 17 18 19 20 21 22 23 24 25 26 27 28 29 30 31 32 33 34 35 36 37 38 39 40 41 42 43 44 45 46 47 48 49 50
000
ASUS44 KMEG 102200
RWRTN
TENNESSEE HOURLY STATE WEATHER ROUNDUP
NATIONAL WEATHER SERVICE MEMPHIS TN
400 PM CST WED FEB 10 2016

TNZ002-004-019-021-049-052-054-088>092-102300-
WEST TENNESSEE

CITY           SKY/WX    TMP DP  RH WIND       PRES   REMARKS
MEMPHIS INTL   MOSUNNY   43  15  32 SW9       30.14F
NWS MEMPHIS      N/A     41 N/A N/A MISG        N/A
JACKSON        CLOUDY    32   7  35 W3        30.17S
DYERSBURG      SUNNY     32   9  37 S3        30.19S
UNION CITY     CLOUDY    27  10  50 SW6       30.16S WCI  20
PARIS          CLOUDY    23  16  74 SW6       30.16S WCI  16
$$

TNZ008-025-027-028-033-062-065-066-102300-
NORTH MIDDLE TENNESSEE

CITY           SKY/WX    TMP DP  RH WIND       PRES   REMARKS
NASHVILLE      CLOUDY    30   8  39 W9        30.14F WCI  22
CLARKSVILLE    CLOUDY    27   9  46 W12       30.15S WCI  17
COOKEVILLE     SUNNY     27  10  50 W8        30.11R WCI  18
CROSSVILLE     CLOUDY    22   8  55 W9G17     30.05R WCI  12
$$

TNZ061-075-076-078-094-096-097-102300-
SOUTH MIDDLE TENNESSEE

CITY           SKY/WX    TMP DP  RH WIND       PRES   REMARKS
TULLAHOMA      SUNNY     28  10  47 W14       30.13R WCI  17
WINCHESTER     MOSUNNY   30   9  40 W10       30.14R WCI  21
MCMINNVILLE    SUNNY     27  12  54 NW7       30.12R WCI  19
COLUMBIA       CLOUDY    28  19  69 W8        30.14S WCI  20
SHELBYVILLE    PTSUNNY   32  12  43 W12       30.14F WCI  23
$$

TNZ017-018-042-046-047-102300-
NORTHEAST TENNESSEE

CITY           SKY/WX    TMP DP  RH WIND       PRES   REMARKS
TRI CITIES     PTSUNNY   24   7  48 W13G23    29.98S WCI  12
$$

TNZ012-013-036-069-073-074-102300-
CENTRAL EAST TENNESSEE

CITY           SKY/WX    TMP DP  RH WIND       PRES   REMARKS
KNOXVILLE      PTSUNNY   28   7  41 SW17G23   30.08R WCI  16
OAK RIDGE      MOSUNNY   30   2  30 W6        30.08S WCI  24
GATLINBURG     CLEAR     27   3  36 W14       30.05S WCI  15
$$

TNZ083-085-099-102300-
SOUTHEAST TENNESSEE

CITY           SKY/WX    TMP DP  RH WIND       PRES   REMARKS
CHATTANOOGA    PTSUNNY   35   7  31 W14       30.13R WCI  26
$$

SKY/WX REPORTED AS FAIR MEANS FEW OR NO CLOUDS BELOW
12 THOUSAND FEET.




USA.gov is the U.S. government's official web portal to all federal, state and local government web resources and services.